Weather History for PAOT - November, 2013

Change the Weather History Date:

Monday, November 4, 2013

  Actual Average Record
Temperature  
Mean Temperature 26 °F 13 °F  
Max Temperature 30 °F 18 °F 37 °F (2003)
Min Temperature 22 °F - -20 °F (1956)
Degree Days  
Heating Degree Days 39 52  
Month to date heating degree days 164 204  
Since 1 July heating degree days 2458 2886  
Cooling Degree Days 0    
Month to date cooling degree days 0  
Year to date cooling degree days 13  
Moisture  
Dew Point 25 °F    
Average Humidity 0    
Maximum Humidity 0    
Minimum Humidity 0    
Precipitation  
Precipitation 0.13 in 0.02 in 0.23 in (1990)
Month to date precipitation 0.31 0.09  
Year to date precipitation 10.40 9.56  
Snow  
Snow 0.60 in 0.30 in 2.30 in (1990)
Month to date snowfall 1.9 1.1  
Since 1 July snowfall 2.8 8.0  
Since 1 September snowfall 2.8 8.0  
Snow Depth 2.00 in    
Sea Level Pressure  
Sea Level Pressure 29.42 in    
Wind  
Wind Speed 12 mph (North)    
Max Wind Speed 26 mph    
Max Gust Speed 32 mph    
Visibility 6 miles    
Events Snow    
T = Trace of Precipitation, MM = Missing Value Source: NWS Daily Summary

Daily Weather History Graph

Daily Weather History Graph

Search for Another Location

Airport or City:

Trip Planner

Search our weather history database for the weather conditions in past years. The results will help you decide how hot, cold, wet, or windy it might be!

Date:

Astronomy

Nov. 04, 2013 Rise Set
Actual Time 10:05 AM AKST 5:00 PM AKST
Civil Twilight 9:02 AM AKST 6:04 PM AKST
Nautical Twilight 7:57 AM AKST 7:08 PM AKST
Astronomical Twilight 6:55 AM AKST 8:10 PM AKST
Moon 12:13 PM AKST (11/4) 5:29 PM AKST (11/4)
Length of Visible Light 9h 01m
Length of Day
6h 55m
New Moon, 2% of the Moon is Illuminated
Nov 4
New Moon
Nov 9
First Quarter
Nov 17
Full
Nov 25
Last Quarter
Dec 2
New

Hourly Weather History & Observations

Time (AKST) Temp. Windchill Dew Point Humidity Pressure Visibility Wind Dir Wind Speed Gust Speed Precip Events Conditions
12:20 AM 26.6 °F 17.5 °F 24.8 °F 93% 29.34 in 2.0 mi East 9.2 mph - 0.01 in Snow Light Snow
12:53 AM 27.0 °F 17.3 °F 25.0 °F 92% 29.34 in 2.0 mi East 10.4 mph - 0.02 in Snow Light Snow
1:32 AM 26.6 °F 16.8 °F 24.8 °F 93% 29.33 in 1.5 mi East 10.4 mph - 0.02 in Snow Light Snow
1:53 AM 27.0 °F 17.3 °F 26.1 °F 96% 29.34 in 1.5 mi East 10.4 mph - 0.04 in Snow Light Snow
2:14 AM 28.4 °F 19.1 °F 26.6 °F 93% 29.33 in 2.5 mi East 10.4 mph - 0.01 in Snow Light Snow
2:25 AM 26.6 °F 17.5 °F 26.6 °F 100% 29.33 in 1.2 mi East 9.2 mph - 0.01 in Snow Light Snow
2:38 AM 28.4 °F 19.7 °F 26.6 °F 93% 29.33 in 2.5 mi East 9.2 mph - 0.02 in Snow Light Snow
2:53 AM 28.0 °F 19.3 °F 26.1 °F 92% 29.33 in 3.0 mi East 9.2 mph - 0.02 in Snow Light Snow
3:34 AM 28.4 °F 20.4 °F 26.6 °F 93% 29.33 in 3.0 mi East 8.1 mph - 0.01 in Snow Light Snow
3:45 AM 28.4 °F 20.4 °F 26.6 °F 93% 29.33 in 2.0 mi East 8.1 mph - 0.01 in Snow Light Snow
3:53 AM 28.0 °F 20.0 °F 26.1 °F 92% 29.33 in 2.0 mi East 8.1 mph - 0.02 in Snow Light Snow
4:00 AM 28.4 °F 20.4 °F 26.6 °F 93% 29.33 in 1.2 mi East 8.1 mph - 0.00 in Snow Light Snow
4:36 AM 28.4 °F 22.2 °F 26.6 °F 93% 29.33 in 2.0 mi NE 5.8 mph - 0.02 in Snow Light Snow
4:50 AM 28.4 °F 21.2 °F 26.6 °F 93% 29.33 in 2.0 mi ENE 6.9 mph - 0.02 in Snow Light Snow
4:53 AM 28.0 °F 20.8 °F 26.1 °F 92% 29.33 in 2.0 mi ENE 6.9 mph - 0.02 in Snow Light Snow
5:00 AM 28.4 °F 22.2 °F 26.6 °F 93% 29.33 in 4.0 mi ENE 5.8 mph - 0.00 in Snow Light Snow
5:29 AM 28.4 °F 23.3 °F 26.6 °F 93% 29.34 in 1.8 mi NE 4.6 mph - 0.00 in Snow Light Snow
5:53 AM 28.0 °F 22.8 °F 27.0 °F 96% 29.34 in 1.2 mi NNE 4.6 mph - 0.01 in Snow Light Snow
6:07 AM 28.4 °F 23.3 °F 26.6 °F 93% 29.34 in 1.5 mi NNE 4.6 mph - 0.01 in Snow Light Snow
6:16 AM 28.4 °F 23.3 °F 26.6 °F 93% 29.34 in 2.0 mi North 4.6 mph - 0.01 in Snow Light Snow
6:28 AM 26.6 °F 20.0 °F 26.6 °F 100% 29.34 in 3.0 mi NNE 5.8 mph - 0.01 in Snow Light Snow
6:50 AM 26.6 °F 18.2 °F 24.8 °F 93% 29.34 in 8.0 mi North 8.1 mph - 0.01 in   Overcast
6:53 AM 27.0 °F 18.7 °F 25.0 °F 92% 29.34 in 8.0 mi North 8.1 mph - 0.01 in   Overcast
7:02 AM 26.6 °F 17.5 °F 24.8 °F 93% 29.35 in 5.0 mi North 9.2 mph - 0.00 in Snow Light Snow
7:12 AM 26.6 °F 18.2 °F 24.8 °F 93% 29.34 in 3.0 mi NNE 8.1 mph - 0.00 in Snow Light Snow
7:53 AM 27.0 °F 19.5 °F 25.0 °F 92% 29.35 in 10.0 mi North 6.9 mph - 0.00 in   Overcast
8:53 AM 27.0 °F 21.6 °F 25.0 °F 92% 29.36 in 10.0 mi NNW 4.6 mph - N/A   Overcast
9:53 AM 28.0 °F 22.8 °F 26.1 °F 92% 29.39 in 10.0 mi NNW 4.6 mph - N/A   Overcast
10:12 AM 28.4 °F 21.2 °F 26.6 °F 93% 29.39 in 10.0 mi NW 6.9 mph - N/A   Overcast
10:42 AM 28.4 °F 19.7 °F 26.6 °F 93% 29.40 in 10.0 mi NW 9.2 mph - N/A   Overcast
10:53 AM 28.9 °F 19.8 °F 26.1 °F 89% 29.40 in 10.0 mi NW 10.4 mph - N/A   Mostly Cloudy
11:53 AM 28.0 °F 18.6 °F 25.0 °F 88% 29.42 in 10.0 mi NW 10.4 mph - N/A   Mostly Cloudy
12:53 PM 28.9 °F 19.8 °F 24.1 °F 82% 29.43 in 10.0 mi NW 10.4 mph - N/A   Mostly Cloudy
1:53 PM 28.9 °F 21.1 °F 25.0 °F 85% 29.45 in 10.0 mi NNW 8.1 mph - N/A   Overcast
2:53 PM 28.9 °F 23.9 °F 25.0 °F 85% 29.46 in 10.0 mi NW 4.6 mph - N/A   Overcast
3:00 PM 28.4 °F 22.2 °F 24.8 °F 86% 29.46 in 10.0 mi NW 5.8 mph - N/A   Overcast
3:51 PM 30.2 °F 18.9 °F 24.8 °F 80% 29.49 in 10.0 mi West 16.1 mph - N/A   Overcast
3:53 PM 30.0 °F 18.7 °F 24.1 °F 79% 29.49 in 10.0 mi WNW 16.1 mph - N/A   Overcast
4:53 PM 30.0 °F 18.7 °F 21.9 °F 72% 29.49 in 10.0 mi West 16.1 mph - N/A   Overcast
5:53 PM 28.9 °F 17.7 °F 21.0 °F 72% 29.51 in 10.0 mi West 15.0 mph - N/A   Overcast
6:53 PM 28.9 °F 20.4 °F 21.0 °F 72% 29.53 in 10.0 mi West 9.2 mph - N/A   Overcast
7:49 PM 28.4 °F 16.6 °F 26.6 °F 93% 29.55 in 2.5 mi WSW 16.1 mph - 0.00 in Snow Light Snow
7:53 PM 28.9 °F 16.5 °F 26.1 °F 89% 29.55 in 2.0 mi WSW 18.4 mph - 0.00 in Snow Light Snow
7:55 PM 28.4 °F 16.2 °F 26.6 °F 93% 29.55 in 2.0 mi WSW 17.3 mph - 0.00 in Snow Light Snow
8:02 PM 28.4 °F 14.7 °F 26.6 °F 93% 29.55 in 3.0 mi WSW 21.9 mph - 0.00 in Snow Light Snow
8:04 PM 28.4 °F 15.1 °F 26.6 °F 93% 29.55 in 3.0 mi WSW 20.7 mph - 0.00 in Snow Light Snow
8:53 PM 28.9 °F 17.3 °F 25.0 °F 85% 29.57 in 8.0 mi West 16.1 mph 29.9 mph 0.00 in   Overcast
9:00 PM 28.4 °F 18.0 °F 24.8 °F 86% 29.56 in 7.0 mi NW 12.7 mph 29.9 mph 0.00 in Snow Light Snow
9:51 PM 24.8 °F 10.3 °F 19.4 °F 80% 29.60 in 10.0 mi NNW 20.7 mph - 0.01 in   Overcast
9:53 PM 24.1 °F 9.0 °F 19.9 °F 84% 29.61 in 10.0 mi NNW 21.9 mph - 0.01 in   Overcast
10:53 PM 21.9 °F 5.8 °F 16.0 °F 78% 29.66 in 10.0 mi NNW 23.0 mph - N/A   Partly Cloudy
11:53 PM 23.0 °F 6.6 °F 12.9 °F 65% 29.70 in 10.0 mi NW 25.3 mph 32.2 mph N/A   Partly Cloudy